Limon, CO

12:07 PM MST on February 20, 2017 (GMT -0700)
Limon Municipal

Weather History for KLIC - December, 2013

Change the Weather History Date:

Wednesday, December 11, 2013

  Actual Average Record
Temperature  
Mean Temperature 17 °F -  
Max Temperature 32 °F - 70 °F (2004)
Min Temperature 1 °F - -6 °F (2000)
Degree Days  
Heating Degree Days 48    
Month to date heating degree days 569  
Cooling Degree Days 0    
Month to date cooling degree days 0  
Moisture  
Dew Point 9 °F    
Average Humidity 77    
Maximum Humidity 100    
Minimum Humidity 53    
Precipitation  
Precipitation 0.00 in - 0.06 in (2007)
Month to date precipitation 0.09  
Year to date precipitation 17.17  
Sea Level Pressure  
Sea Level Pressure 30.42 in    
Wind  
Wind Speed 6 mph (South)    
Max Wind Speed 25 mph    
Max Gust Speed 31 mph    
Visibility 8 miles    
Events Fog    
T = Trace of Precipitation, MM = Missing Value Source: NWS Daily Summary

Daily Weather History Graph

Daily Weather History Graph

Search for Another Location

Airport or City:

Trip Planner

Search our weather history database for the weather conditions in past years. The results will help you decide how hot, cold, wet, or windy it might be!

Date:

Astronomy

Dec. 11, 2013 Rise Set
Actual Time 7:04 AM MST 4:31 PM MST
Civil Twilight 6:34 AM MST 5:01 PM MST
Nautical Twilight 6:00 AM MST 5:35 PM MST
Astronomical Twilight 5:28 AM MST 6:07 PM MST
Moon 1:05 PM MST (12/11) 1:29 AM MST (12/11)
Length of Visible Light 10h 27m
Length of Day
9h 27m
Waxing Gibbous, 72% of the Moon is Illuminated
Dec 11
Waxing Gibbous
Dec 17
Full
Dec 25
Last Quarter
Jan 1
New
Jan 7
First Quarter

Hourly Weather History & Observations

Time (MST) Temp. Windchill Dew Point Humidity Pressure Visibility Wind Dir Wind Speed Gust Speed Precip Events Conditions
12:55 AM 17.1 °F 8.7 °F 10.0 °F 74% 30.30 in 10.0 mi North 5.8 mph - N/A   Clear
1:55 AM 16.0 °F 8.8 °F 10.9 °F 81% 30.33 in 10.0 mi West 4.6 mph - N/A   Clear
2:55 AM 12.0 °F 4.1 °F 8.1 °F 84% 30.37 in 10.0 mi NW 4.6 mph - N/A   Clear
3:55 AM 7.0 °F 0.1 °F 5.0 °F 92% 30.42 in 10.0 mi NW 3.5 mph - N/A   Clear
4:11 AM 5.0 °F -2.1 °F 3.9 °F 95% 30.29 in 10.0 mi North 3.5 mph - N/A   Partly Cloudy
4:46 AM 6.1 °F - 3.9 °F 91% 30.30 in 10.0 mi Calm Calm - N/A   Mostly Cloudy
4:55 AM 3.0 °F - 1.0 °F 91% 30.48 in 10.0 mi Calm Calm - N/A   Scattered Clouds
5:13 AM 1.9 °F - -0.0 °F 91% 30.31 in 10.0 mi Calm Calm - N/A   Mostly Cloudy
5:20 AM 1.0 °F - -0.9 °F 91% 30.31 in 10.0 mi Calm Calm - N/A   Mostly Cloudy
5:55 AM 8.1 °F 1.4 °F 5.0 °F 87% 30.48 in 10.0 mi South 3.5 mph - N/A   Overcast
6:14 AM 10.9 °F 4.7 °F 10.0 °F 96% 30.32 in 1.5 mi SE 3.5 mph - N/A   Overcast
6:24 AM 12.0 °F 2.7 °F 12.0 °F 100% 30.32 in 0.5 mi South 5.8 mph - N/A Fog Light Freezing Fog
6:55 AM 12.0 °F -1.3 °F 12.0 °F 100% 30.48 in 0.5 mi South 10.4 mph - N/A Fog Light Freezing Fog
7:28 AM 12.0 °F -0.4 °F 10.9 °F 95% 30.34 in 0.2 mi SSE 9.2 mph - N/A Fog Light Freezing Fog
7:52 AM 12.2 °F 1.7 °F 10.4 °F 92% 30.35 in 0.5 mi South 6.9 mph - N/A Fog Light Freezing Fog
7:55 AM 12.0 °F -0.4 °F 12.0 °F 100% 30.51 in 0.5 mi South 9.2 mph - N/A Fog Light Freezing Fog
8:15 AM 12.0 °F -0.4 °F 10.9 °F 95% 30.36 in 2.0 mi South 9.2 mph - N/A   Overcast
8:24 AM 12.0 °F -0.4 °F 10.9 °F 95% 30.36 in 3.0 mi South 9.2 mph - N/A   Overcast
8:55 AM 15.1 °F 1.8 °F 12.9 °F 91% 30.52 in 10.0 mi South 11.5 mph - N/A   Partly Cloudy
9:55 AM 19.0 °F 6.1 °F 16.0 °F 88% 30.53 in 10.0 mi SSE 12.7 mph - N/A   Clear
10:55 AM 21.0 °F 7.6 °F 16.0 °F 81% 30.51 in 10.0 mi SSE 15.0 mph 23.0 mph N/A   Scattered Clouds
11:55 AM 27.0 °F 13.2 °F 17.1 °F 66% 30.45 in 10.0 mi South 20.7 mph 25.3 mph N/A   Clear
12:55 PM 28.9 °F 16.5 °F 17.1 °F 61% 30.41 in 10.0 mi South 18.4 mph - N/A   Clear
1:55 PM 30.0 °F 17.5 °F 16.0 °F 56% 30.38 in 10.0 mi SSW 19.6 mph 27.6 mph N/A   Clear
2:55 PM 30.9 °F 20.2 °F 16.0 °F 54% 30.39 in 10.0 mi South 15.0 mph 24.2 mph N/A   Clear
3:55 PM 28.9 °F 19.2 °F 16.0 °F 58% 30.42 in 10.0 mi South 11.5 mph - N/A   Clear
4:55 PM 24.1 °F 13.7 °F 15.1 °F 69% 30.47 in 10.0 mi SSE 10.4 mph - N/A   Clear
5:55 PM 19.9 °F 11.1 °F 12.9 °F 74% 30.48 in 10.0 mi SE 6.9 mph - N/A   Clear
6:55 PM 14.0 °F 6.5 °F 10.0 °F 84% 30.49 in 10.0 mi SSE 4.6 mph - N/A   Clear
7:55 PM 6.1 °F - 3.9 °F 91% 30.53 in 10.0 mi Calm Calm - N/A   Clear
8:55 PM 3.9 °F -3.4 °F 1.0 °F 88% 30.53 in 10.0 mi NNW 3.5 mph - N/A   Clear
9:55 PM 3.9 °F -6.9 °F 1.0 °F 88% 30.51 in 10.0 mi NNW 5.8 mph - N/A   Clear
10:55 PM 3.0 °F -4.4 °F -0.0 °F 87% 30.52 in 10.0 mi North 3.5 mph - N/A   Clear
11:55 PM 3.0 °F - -0.0 °F 87% 30.48 in 10.0 mi Calm Calm - N/A   Clear